Volver al catálogo

COSMOS 2173

ActivoMilitarPO
NORAD 21796·PAYLOAD·🇷🇺 Russia

Lanzado Nov 27, 1991 desde Plesetsk Cosmodrome

Loading…

Próximos Pases (próximas 24 horas)

TLE

ActualizadoSource: Space-Track

Época: Sep 14, 2026, 01:59 UTC

1 21796U 91081A   26257.08286274  .00000068  00000-0  53508-4 0  9992
2 21796  82.9523 104.9809 0050524  93.2582  18.1771 13.75770137746623

Sigue COSMOS 2173 en tiempo real con AllMySat

Download on the App Store